Change the Weather History Date:

Thursday, January 31, 2013

  Actual Average (KRUG) Record (KRUG)
Temperature  
Mean Temperature -16 °F -  
Max Temperature -13 °F 17 °F 41 °F (1987)
Min Temperature -20 °F -1 °F -32 °F (1982)
Degree Days  
Heating Degree Days 82    
Moisture  
Dew Point -24 °F    
Average Humidity 70    
Maximum Humidity 76    
Minimum Humidity 64    
Precipitation  
Precipitation 0.00 in - - ()
Sea Level Pressure  
Sea Level Pressure 30.18 in    
Wind  
Wind Speed 19 mph (WNW)    
Max Wind Speed 28 mph    
Max Gust Speed 34 mph    
Visibility 9 miles    
Events Snow    
Averages and records for this station are not official NWS values.
T = Trace of Precipitation, MM = Missing Value Source: NWS Daily Summary

Daily Weather History Graph

Daily Weather History Graph

Search for Another Location

Airport or City:

Trip Planner

Search our weather history database for the weather conditions in past years. The results will help you decide how hot, cold, wet, or windy it might be!

Date:

Astronomy

Jan. 31, 2013 Rise Set
Actual Time 8:07 AM CST 5:39 PM CST
Civil Twilight 7:34 AM CST 6:12 PM CST
Nautical Twilight 6:57 AM CST 6:49 PM CST
Astronomical Twilight 6:21 AM CST 7:25 PM CST
Moon 11:11 PM CST (1/31) 9:43 AM CST (1/31)
Length of Visible Light 10h 38m
Length of Day
9h 31m
Waning Gibbous, 79% of the Moon is Illuminated
Jan 31
Waning Gibbous
Feb 3
Last Quarter
Feb 10
New
Feb 17
First Quarter
Feb 25
Full

Hourly Weather History & Observations

Time (CST) Temp. Windchill Dew Point Humidity Pressure Visibility Wind Dir Wind Speed Gust Speed Precip Events Conditions
12:15 AM -18.4 °F -45.2 °F -25.6 °F 70% 29.99 in 10.0 mi NW 18.4 mph - N/A   Clear
12:35 AM -18.4 °F -44.5 °F -25.6 °F 70% 30.00 in 10.0 mi NW 17.3 mph - N/A   Scattered Clouds
12:55 AM -18.4 °F -45.2 °F -25.6 °F 70% 30.01 in 10.0 mi NW 18.4 mph - N/A   Overcast
1:15 AM -18.4 °F -46.5 °F -25.6 °F 70% 30.01 in 10.0 mi NW 20.7 mph 25.3 mph N/A   Overcast
1:35 AM -18.4 °F -44.5 °F -25.6 °F 70% 30.02 in 10.0 mi WNW 17.3 mph - N/A   Overcast
1:55 AM -18.4 °F -46.5 °F -23.8 °F 76% 30.02 in 5.0 mi NW 20.7 mph 27.6 mph N/A Snow Light Snow
2:15 AM -16.6 °F -45.3 °F -23.8 °F 70% 30.03 in 4.0 mi NW 23.0 mph 27.6 mph N/A Snow Light Snow
2:35 AM -18.4 °F -49.4 °F -23.8 °F 76% 30.04 in 3.0 mi NW 26.5 mph 29.9 mph N/A Snow Light Snow
2:55 AM -18.4 °F -47.7 °F -23.8 °F 76% 30.05 in 4.0 mi NW 23.0 mph 31.1 mph N/A   Haze
3:15 AM -16.6 °F -46.4 °F -23.8 °F 70% 30.06 in 5.0 mi NW 25.3 mph 29.9 mph N/A   Haze
3:35 AM -16.6 °F -46.4 °F -23.8 °F 70% 30.06 in 5.0 mi NW 25.3 mph 29.9 mph N/A   Haze
3:55 AM -16.6 °F -47.4 °F -23.8 °F 70% 30.07 in 5.0 mi NW 27.6 mph 34.5 mph N/A Snow Light Snow
4:15 AM -16.6 °F -45.3 °F -23.8 °F 70% 30.09 in 8.0 mi NW 23.0 mph 29.9 mph N/A   Overcast
4:35 AM -18.4 °F -47.1 °F -23.8 °F 76% 30.09 in 8.0 mi NW 21.9 mph 29.9 mph N/A   Scattered Clouds
4:55 AM -18.4 °F -47.1 °F -25.6 °F 70% 30.10 in 10.0 mi NW 21.9 mph 27.6 mph N/A   Clear
5:15 AM -18.4 °F -47.1 °F -23.8 °F 76% 30.11 in 10.0 mi NW 21.9 mph 28.8 mph N/A   Mostly Cloudy
5:35 AM -18.4 °F -47.7 °F -25.6 °F 70% 30.12 in 10.0 mi NW 23.0 mph - N/A   Mostly Cloudy
6:15 AM -18.4 °F -48.3 °F -25.6 °F 70% 30.13 in 10.0 mi NW 24.2 mph - N/A   Mostly Cloudy
6:35 AM -18.4 °F -47.1 °F -25.6 °F 70% 30.15 in 6.0 mi NW 21.9 mph - N/A Snow Light Snow
6:55 AM -18.4 °F -47.7 °F -25.6 °F 70% 30.15 in 5.0 mi NW 23.0 mph 29.9 mph N/A Snow Light Snow
7:15 AM -18.4 °F -48.3 °F -25.6 °F 70% 30.16 in 5.0 mi NW 24.2 mph 28.8 mph N/A   Haze
7:35 AM -18.4 °F -46.5 °F -25.6 °F 70% 30.18 in 3.0 mi NW 20.7 mph - N/A Snow Light Snow
7:55 AM -18.4 °F -48.3 °F -25.6 °F 70% 30.18 in 2.5 mi NW 24.2 mph 31.1 mph N/A Snow Light Snow
8:15 AM -20.2 °F -46.8 °F -25.6 °F 76% 30.20 in 10.0 mi NW 17.3 mph 25.3 mph N/A   Clear
8:35 AM -20.2 °F -46.8 °F -27.4 °F 69% 30.21 in 10.0 mi NW 17.3 mph 21.9 mph N/A   Clear
8:55 AM -20.2 °F -48.2 °F -27.4 °F 69% 30.22 in 10.0 mi WNW 19.6 mph - N/A   Clear
9:15 AM -20.2 °F -50.1 °F -27.4 °F 69% 30.22 in 10.0 mi NW 23.0 mph 28.8 mph N/A   Clear
9:35 AM -18.4 °F -45.9 °F -25.6 °F 70% 30.23 in 10.0 mi NW 19.6 mph 24.2 mph N/A   Clear
9:55 AM -18.4 °F -45.2 °F -25.6 °F 70% 30.24 in 10.0 mi WNW 18.4 mph - N/A   Clear
10:15 AM -18.4 °F -46.5 °F -25.6 °F 70% 30.25 in 10.0 mi NW 20.7 mph - N/A   Clear
10:35 AM -18.4 °F -49.9 °F -25.6 °F 70% 30.24 in 10.0 mi NW 27.6 mph 31.1 mph N/A   Clear
10:55 AM -18.4 °F -47.1 °F -25.6 °F 70% 30.25 in 10.0 mi NW 21.9 mph 31.1 mph N/A   Clear
11:15 AM -16.6 °F -44.1 °F -25.6 °F 64% 30.26 in 10.0 mi NW 20.7 mph 27.6 mph N/A   Clear
11:35 AM -16.6 °F -44.8 °F -25.6 °F 64% 30.26 in 10.0 mi NW 21.9 mph 27.6 mph N/A   Clear
11:55 AM -16.6 °F -44.1 °F -23.8 °F 70% 30.27 in 10.0 mi NW 20.7 mph 27.6 mph N/A   Clear
12:15 PM -16.6 °F -44.1 °F -22.0 °F 76% 30.26 in 10.0 mi NW 20.7 mph 28.8 mph N/A   Clear
12:35 PM -14.8 °F -42.9 °F -22.0 °F 70% 30.26 in 10.0 mi WNW 23.0 mph - N/A   Clear
12:55 PM -14.8 °F -42.4 °F -22.0 °F 70% 30.26 in 10.0 mi WNW 21.9 mph 26.5 mph N/A   Clear
1:15 PM -13.0 °F -39.4 °F -22.0 °F 64% 30.26 in 10.0 mi NW 20.7 mph - N/A   Clear
1:35 PM -13.0 °F -38.8 °F -22.0 °F 64% 30.26 in 10.0 mi WNW 19.6 mph - N/A   Clear
1:55 PM -13.0 °F -40.0 °F -22.0 °F 64% 30.25 in 10.0 mi WNW 21.9 mph 26.5 mph N/A   Clear
2:15 PM -13.0 °F -39.4 °F -20.2 °F 70% 30.25 in 10.0 mi WNW 20.7 mph 26.5 mph N/A   Clear
2:35 PM -13.0 °F -40.0 °F -20.2 °F 70% 30.24 in 10.0 mi NW 21.9 mph 26.5 mph N/A   Clear
2:55 PM -13.0 °F -38.8 °F -20.2 °F 70% 30.24 in 10.0 mi NW 19.6 mph 26.5 mph N/A   Clear
3:15 PM -13.0 °F -38.8 °F -20.2 °F 70% 30.23 in 10.0 mi WNW 19.6 mph - N/A   Clear
3:35 PM -13.0 °F -38.8 °F -20.2 °F 70% 30.24 in 10.0 mi WNW 19.6 mph - N/A   Clear
3:55 PM -13.0 °F -38.8 °F -20.2 °F 70% 30.24 in 10.0 mi WNW 19.6 mph - N/A   Clear
4:15 PM -13.0 °F -36.8 °F -20.2 °F 70% 30.24 in 10.0 mi WNW 16.1 mph 26.5 mph N/A   Clear
4:35 PM -13.0 °F -38.8 °F -20.2 °F 70% 30.24 in 10.0 mi WNW 19.6 mph 23.0 mph N/A   Clear
4:55 PM -13.0 °F -36.8 °F -22.0 °F 64% 30.24 in 10.0 mi WNW 16.1 mph - N/A   Clear
5:15 PM -13.0 °F -35.2 °F -22.0 °F 64% 30.24 in 10.0 mi WNW 13.8 mph - N/A   Clear
5:35 PM -13.0 °F -33.4 °F -22.0 °F 64% 30.23 in 10.0 mi WNW 11.5 mph - N/A   Clear
5:55 PM -14.8 °F -35.6 °F -22.0 °F 70% 30.23 in 10.0 mi WNW 11.5 mph - N/A   Clear
6:15 PM -14.8 °F -33.5 °F -22.0 °F 70% 30.24 in 10.0 mi WNW 9.2 mph - N/A   Clear
6:35 PM -14.8 °F -34.6 °F -22.0 °F 70% 30.24 in 10.0 mi WNW 10.4 mph - N/A   Clear
7:15 PM -16.6 °F -34.4 °F -22.0 °F 76% 30.23 in 10.0 mi West 8.1 mph - N/A   Clear
7:35 PM -16.6 °F -32.9 °F -23.8 °F 70% 30.24 in 10.0 mi West 6.9 mph - N/A   Clear
7:55 PM -16.6 °F -31.3 °F -23.8 °F 70% 30.23 in 10.0 mi West 5.8 mph - N/A   Clear
8:15 PM -16.6 °F -35.7 °F -23.8 °F 70% 30.23 in 10.0 mi West 9.2 mph - N/A   Clear
8:35 PM -16.6 °F -32.9 °F -23.8 °F 70% 30.22 in 10.0 mi West 6.9 mph - N/A   Clear
9:15 PM -20.2 °F -37.3 °F -25.6 °F 76% 30.21 in 10.0 mi West 6.9 mph - N/A   Clear
9:35 PM -20.2 °F -37.3 °F -25.6 °F 76% 30.21 in 10.0 mi West 6.9 mph - N/A   Clear
10:15 PM -18.4 °F -36.6 °F -25.6 °F 70% 30.20 in 10.0 mi West 8.1 mph - N/A   Clear
10:35 PM -20.2 °F -33.5 °F -27.4 °F 69% 30.19 in 10.0 mi WSW 4.6 mph - N/A   Clear
10:55 PM -20.2 °F -33.5 °F -25.6 °F 76% 30.19 in 10.0 mi West 4.6 mph - N/A   Clear
11:15 PM -20.2 °F -35.5 °F -27.4 °F 69% 30.18 in 10.0 mi WSW 5.8 mph - N/A   Clear
11:35 PM -20.2 °F -35.5 °F -25.6 °F 76% 30.17 in 10.0 mi WSW 5.8 mph - N/A   Clear
11:55 PM -20.2 °F -35.5 °F -27.4 °F 69% 30.16 in 10.0 mi SW 5.8 mph - N/A   Clear